Weather History for Silver City, NM

Change the Weather History Date:

Friday, May 11, 2012

  Actual Average (KDMN) Record (KDMN)
Temperature  
Mean Temperature 65 °F 68 °F  
Max Temperature 82 °F 86 °F 98 °F (1962)
Min Temperature 48 °F 50 °F 35 °F (1953)
Growing Degree Days 15 (Base 50)    
Moisture  
Dew Point 31 °F    
Average Humidity 33    
Maximum Humidity 93    
Minimum Humidity 10    
Precipitation  
Precipitation 0.00 in 0.02 in 0.04 in (1987)
Month to date precipitation 0.27  
Year to date precipitation 2.25  
Sea Level Pressure  
Sea Level Pressure 30.03 in    
Wind  
Wind Speed 14 mph (NW)    
Max Wind Speed 26 mph    
Max Gust Speed 36 mph    
Visibility 10 miles    
Events      
T = Trace of Precipitation, MM = Missing Value Source: NWS Daily Summary

Daily Weather History Graph

Daily Weather History Graph

Search for Another Location

Airport:

Trip Planner

Search our weather history database for the weather conditions in past years. The results will help you decide how hot, cold, wet, or windy it might be!

Date:

Astronomy

May. 11, 2012 Rise Set
Actual Time 6:16 AM MDT 8:01 PM MDT
Civil Twilight 5:49 AM MDT 8:28 PM MDT
Nautical Twilight 5:17 AM MDT 9:01 PM MDT
Astronomical Twilight 4:43 AM MDT 9:35 PM MDT
Moon 12:45 AM MDT (5/11) 11:49 AM MDT (5/11)
Length of Visible Light 14h 39m
Length of Day
13h 45m
Waning Gibbous, 62% of the Moon is Illuminated
May 11
Waning Gibbous
May 12
Last Quarter
May 20
New
May 28
First Quarter
Jun 4
Full

Hourly Weather History & Observations

Time (MDT) Temp. Dew Point Humidity Pressure Visibility Wind Dir Wind Speed Gust Speed Precip Events Conditions
12:15 AM 48.2 °F 46.4 °F 93% 29.98 in 10.0 mi North 10.4 mph - N/A   Clear
12:35 AM 48.2 °F 44.6 °F 87% 29.98 in 10.0 mi North 9.2 mph - N/A   Clear
12:55 AM 50.0 °F 44.6 °F 82% 29.97 in 10.0 mi NNW 11.5 mph - N/A   Clear
1:15 AM 48.2 °F 44.6 °F 87% 29.96 in 10.0 mi NNW 11.5 mph - N/A   Clear
1:55 AM 50.0 °F 41.0 °F 71% 29.96 in 10.0 mi North 12.7 mph - N/A   Clear
2:15 AM 53.6 °F 39.2 °F 58% 29.96 in 10.0 mi North 13.8 mph - N/A   Clear
2:35 AM 50.0 °F 39.2 °F 66% 29.95 in 10.0 mi North 12.7 mph - N/A   Clear
2:55 AM 51.8 °F 37.4 °F 58% 29.95 in 10.0 mi NNW 11.5 mph - N/A   Clear
3:15 AM 51.8 °F 37.4 °F 58% 29.95 in 10.0 mi North 13.8 mph - N/A   Clear
3:55 AM 50.0 °F 39.2 °F 66% 29.96 in 10.0 mi NNW 13.8 mph - N/A   Clear
4:15 AM 53.6 °F 37.4 °F 54% 29.97 in 10.0 mi North 15.0 mph - N/A   Clear
4:35 AM 50.0 °F 37.4 °F 62% 29.97 in 10.0 mi NNW 13.8 mph - N/A   Clear
5:15 AM 51.8 °F 39.2 °F 62% 29.97 in 10.0 mi NNW 13.8 mph - N/A   Clear
5:35 AM 51.8 °F 37.4 °F 58% 29.98 in 10.0 mi NNW 15.0 mph - N/A   Clear
5:55 AM 51.8 °F 37.4 °F 58% 29.98 in 10.0 mi NNW 15.0 mph - N/A   Clear
6:15 AM 53.6 °F 37.4 °F 54% 29.99 in 10.0 mi NNW 16.1 mph - N/A   Clear
6:35 AM 53.6 °F 37.4 °F 54% 29.99 in 10.0 mi NNW 17.3 mph - N/A   Clear
6:55 AM 55.4 °F 37.4 °F 51% 30.00 in 10.0 mi NNW 16.1 mph - N/A   Clear
7:15 AM 57.2 °F 37.4 °F 48% 30.01 in 10.0 mi NNW 15.0 mph - N/A   Clear
7:35 AM 59.0 °F 37.4 °F 45% 30.01 in 10.0 mi NNW 17.3 mph - N/A   Clear
7:55 AM 62.6 °F 37.4 °F 39% 30.02 in 10.0 mi NNW 16.1 mph - N/A   Clear
8:15 AM 64.4 °F 35.6 °F 34% 30.02 in 10.0 mi NNW 15.0 mph - N/A   Clear
8:35 AM 66.2 °F 35.6 °F 32% 30.03 in 10.0 mi NW 20.7 mph - N/A   Clear
8:55 AM 68.0 °F 32.0 °F 26% 30.03 in 10.0 mi NW 23.0 mph 28.8 mph N/A   Clear
9:15 AM 68.0 °F 32.0 °F 26% 30.03 in 10.0 mi NW 23.0 mph 31.1 mph N/A   Clear
9:35 AM 69.8 °F 32.0 °F 25% 30.03 in 10.0 mi NW 26.5 mph 34.5 mph N/A   Clear
9:55 AM 71.6 °F 32.0 °F 23% 30.03 in 10.0 mi NW 25.3 mph 31.1 mph N/A   Clear
10:15 AM 73.4 °F 32.0 °F 22% 30.03 in 10.0 mi NW 23.0 mph 31.1 mph N/A   Clear
10:35 AM 73.4 °F 32.0 °F 22% 30.04 in 10.0 mi NW 23.0 mph 28.8 mph N/A   Clear
10:55 AM 73.4 °F 32.0 °F 22% 30.04 in 10.0 mi NW 23.0 mph 27.6 mph N/A   Clear
11:15 AM 75.2 °F 30.2 °F 19% 30.05 in 10.0 mi NW 19.6 mph 28.8 mph N/A   Clear
11:35 AM 77.0 °F 28.4 °F 17% 30.05 in 10.0 mi NNW 20.7 mph 28.8 mph N/A   Clear
11:55 AM 77.0 °F 28.4 °F 17% 30.05 in 10.0 mi NW 18.4 mph 26.5 mph N/A   Clear
12:15 PM 77.0 °F 30.2 °F 18% 30.04 in 10.0 mi WNW 20.7 mph 28.8 mph N/A   Clear
12:35 PM 78.8 °F 28.4 °F 16% 30.04 in 10.0 mi NW 17.3 mph 26.5 mph N/A   Clear
12:55 PM 78.8 °F 26.6 °F 15% 30.04 in 10.0 mi West 18.4 mph 31.1 mph N/A   Clear
1:15 PM 80.6 °F 26.6 °F 14% 30.03 in 10.0 mi NW 20.7 mph 31.1 mph N/A   Clear
1:35 PM 82.4 °F 26.6 °F 13% 30.02 in 10.0 mi West 18.4 mph 32.2 mph N/A   Clear
1:55 PM 82.4 °F 23.0 °F 11% 30.02 in 10.0 mi WNW 24.2 mph 32.2 mph N/A   Clear
2:15 PM 82.4 °F 23.0 °F 11% 30.02 in 10.0 mi West 21.9 mph 34.5 mph N/A   Clear
2:35 PM 82.4 °F 23.0 °F 11% 30.02 in 10.0 mi WNW 16.1 mph 26.5 mph N/A   Clear
2:55 PM 82.4 °F 23.0 °F 11% 30.02 in 10.0 mi West 18.4 mph 28.8 mph N/A   Clear
3:15 PM 80.6 °F 23.0 °F 12% 30.01 in 10.0 mi West 13.8 mph 32.2 mph N/A   Clear
3:35 PM 82.4 °F 19.4 °F 10% 30.01 in 10.0 mi West 19.6 mph 31.1 mph N/A   Clear
3:55 PM 82.4 °F 19.4 °F 10% 30.01 in 10.0 mi West 17.3 mph 35.7 mph N/A   Clear
4:15 PM 82.4 °F 19.4 °F 10% 30.01 in 10.0 mi West 16.1 mph 28.8 mph N/A   Clear
4:35 PM 80.6 °F 19.4 °F 10% 30.01 in 10.0 mi West 15.0 mph 21.9 mph N/A   Clear
4:55 PM 80.6 °F 19.4 °F 10% 30.01 in 10.0 mi WNW 11.5 mph 27.6 mph N/A   Clear
5:35 PM 82.4 °F 21.2 °F 10% 30.02 in 10.0 mi West 18.4 mph 23.0 mph N/A   Clear
5:55 PM 80.6 °F 23.0 °F 12% 30.02 in 10.0 mi West 10.4 mph 24.2 mph N/A   Clear
6:15 PM 80.6 °F 24.8 °F 13% 30.03 in 10.0 mi NE 11.5 mph 17.3 mph N/A   Clear
6:35 PM 75.2 °F 30.2 °F 19% 30.03 in 10.0 mi South 4.6 mph - N/A   Scattered Clouds
6:55 PM 75.2 °F 30.2 °F 19% 30.02 in 10.0 mi NE 3.5 mph - N/A   Partly Cloudy
7:15 PM 78.8 °F 23.0 °F 13% 30.02 in 10.0 mi WNW 16.1 mph 21.9 mph N/A   Clear
7:35 PM 77.0 °F 23.0 °F 13% 30.03 in 10.0 mi West 11.5 mph - N/A   Partly Cloudy
7:55 PM 75.2 °F 23.0 °F 14% 30.04 in 10.0 mi West 9.2 mph - N/A   Clear
8:15 PM 71.6 °F 23.0 °F 16% 30.06 in 10.0 mi West 6.9 mph - N/A   Clear
8:35 PM 71.6 °F 23.0 °F 16% 30.07 in 10.0 mi West 5.8 mph - N/A   Clear
8:55 PM 66.2 °F 23.0 °F 19% 30.08 in 10.0 mi South 3.5 mph - N/A   Clear
9:15 PM 66.2 °F 24.8 °F 21% 30.09 in 10.0 mi ESE 3.5 mph - N/A   Clear
9:35 PM 64.4 °F 32.0 °F 30% 30.11 in 10.0 mi SE 10.4 mph - N/A   Clear
9:55 PM 62.6 °F 32.0 °F 32% 30.12 in 10.0 mi ESE 5.8 mph - N/A   Clear
10:15 PM 59.0 °F 32.0 °F 36% 30.14 in 10.0 mi ESE 6.9 mph - N/A   Clear
10:35 PM 64.4 °F 37.4 °F 37% 30.15 in 10.0 mi East 18.4 mph - N/A   Clear
10:55 PM 64.4 °F 37.4 °F 37% 30.16 in 10.0 mi ENE 10.4 mph - N/A   Clear
11:15 PM 62.6 °F 37.4 °F 39% 30.17 in 10.0 mi East 9.2 mph - N/A   Clear
11:35 PM 60.8 °F 37.4 °F 42% 30.17 in 10.0 mi East 12.7 mph - N/A   Clear
11:55 PM 60.8 °F 39.2 °F 45% 30.18 in 10.0 mi East 12.7 mph 17.3 mph N/A   Clear